This is the latest recevied weather packets stored in our database for station/object M0UPS-13. If no packets are shown the sender has not sent any weather packets the latest 10 day(s).
| Time | Temp. | Humidity | Pressure | Rain* | Wind** | Luminosity | Snow |
|---|---|---|---|---|---|---|---|
| 1777912502 | 15.56° C | 72% | 1014.2 hPa | 0 mm | - | 82 W/m² | - |
| 1777912202 | 15.56° C | 74% | 1014.3 hPa | 0 mm | - | 85 W/m² | - |
| 1777911902 | 15° C | 74% | 1014.5 hPa | 0 mm | - | 82 W/m² | - |
| 1777911602 | 15° C | 74% | 1014.3 hPa | 0 mm | - | 65 W/m² | - |
| 1777911302 | 15.56° C | 74% | 1014.4 hPa | 0 mm | - | 54 W/m² | - |
| 1777911002 | 15.56° C | 73% | 1014.5 hPa | 0 mm | - | 49 W/m² | - |
| 1777910702 | 15.56° C | 73% | 1014.4 hPa | 0 mm | - | 67 W/m² | - |
| 1777910402 | 15.56° C | 73% | 1014.2 hPa | 0 mm | - | 93 W/m² | - |
| 1777910103 | 16.11° C | 72% | 1014.2 hPa | 0 mm | - | 82 W/m² | - |
| 1777909802 | 16.67° C | 71% | 1014.1 hPa | 0 mm | - | 71 W/m² | - |
| 1777909502 | 16.67° C | 69% | 1014.2 hPa | 0 mm | - | 82 W/m² | - |
| 1777909202 | 16.67° C | 68% | 1014.4 hPa | 0 mm | - | 149 W/m² | - |
| 1777908902 | 16.67° C | 67% | 1014.1 hPa | 0 mm | - | 219 W/m² | - |
| 1777908602 | 16.67° C | 68% | 1014.3 hPa | 0 mm | - | 209 W/m² | - |
| 1777908302 | 16.67° C | 68% | 1014.4 hPa | 0 mm | - | 148 W/m² | - |
| 1777908002 | 16.67° C | 70% | 1014.4 hPa | 0 mm | - | 233 W/m² | - |
| 1777907702 | 16.67° C | 69% | 1014.3 hPa | 0 mm | - | 253 W/m² | - |
| 1777907402 | 16.67° C | 67% | 1014.4 hPa | 0 mm | - | 180 W/m² | - |
| 1777907102 | 16.67° C | 68% | 1014.2 hPa | 0 mm | - | 191 W/m² | - |
| 1777906802 | 16.67° C | 67% | 1014.4 hPa | 0 mm | - | 194 W/m² | - |
| 1777906503 | 16.67° C | 68% | 1014.4 hPa | 0 mm | - | 195 W/m² | - |
| 1777906203 | 16.67° C | 69% | 1014.4 hPa | 0 mm | - | 214 W/m² | - |
| 1777905903 | 16.67° C | 69% | 1014.3 hPa | 0 mm | - | 202 W/m² | - |
| 1777905603 | 16.11° C | 69% | 1014.5 hPa | 0 mm | - | 188 W/m² | - |
| 1777905302 | 16.11° C | 69% | 1014.6 hPa | 0 mm | - | 174 W/m² | - |
* Rain latest hour (hover to see other rain measurements)
** Current wind speed in m/s (hover to see current wind gust speed)